[[{"header":{"parameterUnit":"m.s-1","parameterCategory":1,"la1":30.2991,"la2":30.254,"lo1":-89.0895,"lo2":-89.0444,"dy":0.0017,"dx":0.0017,"nx":28,"ny":28,"refTime":"2025-03-04T09:00:00:Z","depth":0,"parameterNumber":2,"parameterNumberName":"U-component_of_WINDS"},"data":[0,0,0,0,0,0,0,0,0,0,0,0,0,0,0,0,0,0,0,0,0,0,0,0,0,0,0,0,0,0,0,0,0,0,0,0,0,0,0,0,0,0,0,0,0,0,0,0,0,0,0,0,0,0,0,0,0,0,-5.628,-5.628,0,-5.6309,-5.631,-5.631,-5.6288,-5.6287,-5.6286,-5.6285,-5.6313,-5.6315,-5.6317,0,0,0,0,0,0,0,0,0,0,0,0,0,-5.6205,-5.6207,-5.628,-5.628,-5.6281,-5.6309,-5.631,-5.631,-5.6288,-5.6287,-5.6285,-5.6284,-5.6313,-5.6315,-5.6317,0,0,0,0,0,0,0,0,0,0,0,0,0,-5.6237,-5.6207,-5.628,-5.6273,-5.6273,-5.6309,-5.631,-5.631,-5.6288,-5.6287,-5.6285,-5.6284,-5.6312,-5.6315,-5.6317,-5.6361,0,0,-5.6325,-5.6326,0,0,0,0,0,0,0,0,-5.6235,-5.6239,-5.6274,-5.6274,-5.6273,-5.6293,-5.6294,-5.6327,-5.6288,-5.6282,-5.6285,-5.6283,-5.6308,-5.6311,-5.6319,-5.6363,-5.6364,-5.6325,-5.6326,-5.6327,-5.6328,0,0,0,0,0,0,0,-5.6233,-5.6238,-5.6291,-5.6274,-5.6274,-5.6269,-5.6272,-5.63,-5.6303,-5.6283,-5.6281,-5.6285,-5.6307,-5.6317,-5.632,-5.6364,-5.6325,-5.6327,-5.6329,-5.633,-5.6446,-5.6448,0,0,0,0,0,0,-5.6231,-5.6236,-5.6291,-5.6292,-5.625,-5.6271,-5.6274,-5.6288,-5.6302,-5.6303,-5.6286,-5.6284,-5.6313,-5.6317,-5.6321,-5.6373,-5.6327,-5.633,-5.6331,-5.6445,-5.6447,-5.6448,0,0,0,0,0,0,-5.623,-5.6236,-5.6289,-5.6264,-5.627,-5.6274,-5.629,-5.629,-5.6299,-5.6305,-5.6305,-5.6295,-5.6312,-5.6317,-5.6352,-5.6373,-5.6331,-5.6333,-5.6443,-5.6445,-5.6448,-5.6478,0,0,0,0,0,0,-5.6228,-5.6236,-5.6252,-5.6265,-5.6272,-5.632,-5.6291,-5.6291,-5.6303,-5.6301,-5.6313,-5.6314,-5.6312,-5.6348,-5.6354,-5.6376,-5.6335,-5.6441,-5.6444,-5.6447,-5.6475,-5.6481,-5.6486,0,0,0,0,0,-5.6225,-5.6259,-5.6253,-5.626,-5.6292,-5.6321,-5.6325,-5.6321,-5.6305,-5.6322,-5.6326,-5.6314,-5.6371,-5.6352,-5.6358,-5.6381,-5.6439,-5.6443,-5.6447,-5.6472,-5.648,-5.6486,0,0,0,0,0,0,-5.6248,-5.6261,-5.6254,-5.6293,-5.6306,-5.6317,-5.6338,-5.633,-5.6347,-5.6344,-5.6339,-5.6342,-5.6378,-5.6384,-5.6362,-5.6426,-5.6402,-5.6408,-5.642,-5.6427,-5.6433,-5.6429,-5.6337,0,0,0,0,0,-5.6258,-5.6281,-5.629,-5.6324,-5.6331,-5.6334,-5.6346,-5.6342,-5.6355,-5.6361,-5.6367,-5.638,-5.6401,-5.6415,-5.6435,-5.6477,-5.6479,-5.6496,-5.6502,-5.6507,-5.651,-5.6533,-5.6541,-5.646,-5.646,-5.646,0,0,-5.6278,-5.6288,-5.6302,-5.6329,-5.6338,-5.6361,-5.6338,-5.6363,-5.638,-5.6364,-5.6397,-5.6403,-5.6417,-5.6456,-5.6473,-5.6462,-5.6534,-5.6511,-5.6515,-5.6516,-5.6538,-5.6545,-5.6552,-5.6463,-5.6462,-5.6462,0,0,-5.6326,-5.6336,-5.6365,-5.6376,-5.6392,-5.6394,-5.6401,-5.6414,-5.6417,-5.645,-5.6439,-5.646,-5.6496,-5.6507,-5.6517,-5.6573,-5.6562,-5.658,-5.6608,-5.6631,-5.6637,-5.6642,-5.6661,-5.6668,-5.6584,-5.6584,-5.6584,0,-5.6348,-5.6383,-5.6381,-5.6407,-5.642,-5.6408,-5.6438,-5.6448,-5.6469,-5.6478,-5.6466,-5.6512,-5.6521,-5.6562,-5.6575,-5.6585,-5.6592,-5.6576,-5.6636,-5.6642,-5.6647,-5.6665,-5.6672,-5.6586,-5.6586,-5.6585,-5.6585,0,-5.641,-5.6434,-5.6456,-5.6477,-5.6492,-5.652,-5.6523,-5.6538,-5.6535,-5.6538,-5.6573,-5.6584,-5.6606,-5.6616,-5.6612,-5.6657,-5.6649,-5.6637,-5.6613,-5.6657,-5.6673,-5.668,-5.6589,-5.6588,-5.6587,-5.6587,0,0,-5.6469,-5.6491,-5.6499,-5.6509,-5.6527,-5.6546,-5.6574,-5.6596,-5.6609,-5.6626,-5.6649,-5.6681,-5.667,-5.6682,-5.668,-5.67,-5.6743,-5.6685,-5.6686,-5.6694,-5.6792,-5.6799,-5.6807,-5.6737,-5.6739,-5.674,-5.679,0,-5.6517,-5.6565,-5.6566,-5.661,-5.6633,-5.6624,-5.6649,-5.6663,-5.6668,-5.6688,-5.6693,-5.6716,-5.6701,-5.6708,-5.6727,-5.6733,-5.6762,-5.673,-5.6757,-5.6758,-5.6751,-5.6816,-5.6824,-5.6871,-5.6797,-5.6798,-5.6799,0,-5.6577,-5.6596,-5.6644,-5.6659,-5.6669,-5.6691,-5.6712,-5.6732,-5.6748,-5.675,-5.6765,-5.676,-5.6789,-5.6768,-5.6807,-5.6786,-5.6798,-5.6803,-5.6805,-5.6805,-5.6779,-5.6816,-5.6886,-5.6892,-5.6809,-5.6808,-5.6808,0,-5.6614,-5.6652,-5.6685,-5.6694,-5.6714,-5.673,-5.6739,-5.6754,-5.6767,-5.6786,-5.6795,-5.6817,-5.6829,-5.6846,-5.6848,-5.6832,-5.6888,-5.6866,-5.689,-5.689,-5.69,-5.6898,-5.697,-5.6912,-5.6911,-5.6911,-5.6911,0,-5.6666,-5.6695,-5.6702,-5.6722,-5.6754,-5.6756,-5.6788,-5.6796,-5.681,-5.6831,-5.6826,-5.6846,-5.6849,-5.687,-5.6873,-5.6905,-5.6911,-5.6913,-5.6913,-5.6912,-5.6911,-5.6917,-5.6913,-5.6913,-5.6913,-5.6912,-5.6912,0,-5.6711,-5.6717,-5.6752,-5.6769,-5.6774,-5.6797,-5.6812,-5.6831,-5.6837,-5.6865,-5.6871,-5.688,-5.6905,-5.691,-5.6939,-5.6941,-5.6979,-5.6977,-5.6973,-5.6972,-5.6995,-5.6992,-5.7071,-5.7081,-5.7018,-5.7019,-5.7019,0,-5.6742,-5.6764,-5.6784,-5.6798,-5.6808,-5.6832,-5.6846,-5.6849,-5.6865,-5.6886,-5.6903,-5.6928,-5.6948,-5.6988,-5.6997,-5.702,-5.7017,-5.7043,-5.702,-5.7019,-5.7015,-5.7013,-5.7015,-5.7046,-5.7047,-5.7048,-5.7048,0,-5.6796,-5.6799,-5.682,-5.6843,-5.6861,-5.6879,-5.6896,-5.6908,-5.6914,-5.6932,-5.6958,-5.6973,-5.7004,-5.7029,-5.7052,-5.7061,-5.7055,-5.7056,-5.7062,-5.706,-5.7057,-5.7058,-5.6983,-5.7053,-5.7053,-5.7052,-5.7052,-5.7052,-5.6834,-5.6853,-5.6871,-5.6895,-5.6909,-5.6925,-5.6945,-5.6954,-5.6976,-5.7001,-5.7002,-5.7031,-5.7048,-5.7079,-5.709,-5.7112,-5.7104,-5.7113,-5.7115,-5.7117,-5.7118,-5.7056,-5.7117,-5.7117,-5.7117,-5.7116,-5.7116,0,-5.6886,-5.6898,-5.692,-5.6945,-5.6964,-5.696,-5.6979,-5.6995,-5.702,-5.7037,-5.7057,-5.7088,-5.7112,-5.7124,-5.7149,-5.7164,-5.7162,-5.717,-5.7168,-5.717,-5.7125,-5.7116,-5.7171,-5.7171,-5.7171,-5.7171,-5.7171,-5.7171,-5.6916,-5.6948,-5.6953,-5.6993,-5.7005,-5.7032,-5.7044,-5.7059,-5.7073,-5.7107,-5.7128,-5.7136,-5.7151,-5.7177,-5.72,-5.7203,-5.7211,-5.722,-5.7221,-5.7179,-5.7173,-5.7168,-5.7159,-5.7222,-5.7222,-5.7264,-5.7264,-5.7265]},{"header":{"parameterUnit":"m.s-1","parameterCategory":1,"la1":30.2991,"la2":30.254,"lo1":-89.0895,"lo2":-89.0444,"dy":0.0017,"dx":0.0017,"nx":28,"ny":28,"refTime":"2025-03-04T09:00:00:Z","depth":0,"parameterNumber":3,"parameterNumberName":"V-component_of_WINDS"},"data":[0,0,0,0,0,0,0,0,0,0,0,0,0,0,0,0,0,0,0,0,0,0,0,0,0,0,0,0,0,0,0,0,0,0,0,0,0,0,0,0,0,0,0,0,0,0,0,0,0,0,0,0,0,0,0,0,0,0,6.8977,6.8978,0,6.9008,6.9009,6.9009,6.8962,6.896,6.8958,6.8957,6.8989,6.8991,6.8994,0,0,0,0,0,0,0,0,0,0,0,0,0,6.8879,6.8881,6.8977,6.8978,6.8978,6.9008,6.9009,6.9009,6.8962,6.896,6.8958,6.8956,6.8988,6.8991,6.8994,0,0,0,0,0,0,0,0,0,0,0,0,0,6.8917,6.8882,6.8977,6.8958,6.8957,6.9008,6.9009,6.9009,6.8962,6.896,6.8957,6.8955,6.8987,6.8991,6.8994,6.9066,0,0,6.9005,6.9007,0,0,0,0,0,0,0,0,6.8915,6.8921,6.8961,6.896,6.8958,6.8979,6.8986,6.9028,6.8963,6.896,6.8957,6.8954,6.8988,6.8991,6.9002,6.9068,6.9069,6.9006,6.9008,6.9009,6.901,0,0,0,0,0,0,0,6.8912,6.8919,6.899,6.8961,6.896,6.8949,6.8951,6.8994,6.8987,6.896,6.8957,6.8961,6.8986,6.8999,6.9003,6.9069,6.9006,6.9009,6.9011,6.9012,6.9199,6.9202,0,0,0,0,0,0,6.8912,6.8917,6.8989,6.899,6.893,6.8952,6.8955,6.8975,6.8987,6.8986,6.8963,6.8959,6.8994,6.8999,6.9004,6.9091,6.9009,6.9013,6.9015,6.9196,6.92,6.9203,0,0,0,0,0,0,6.891,6.8919,6.8987,6.8953,6.8961,6.8957,6.8979,6.8976,6.8989,6.8989,6.8988,6.8977,6.8992,6.8999,6.9052,6.9092,6.9014,6.9018,6.9193,6.9197,6.9201,6.9266,0,0,0,0,0,0,6.8907,6.8918,6.8945,6.8954,6.8963,6.9034,6.8981,6.8979,6.8995,6.899,6.9002,6.9001,6.8991,6.9047,6.9055,6.9095,6.902,6.919,6.9195,6.92,6.926,6.9272,6.9282,0,0,0,0,0,6.8904,6.8961,6.8946,6.8955,6.8996,6.9037,6.9042,6.9028,6.8998,6.9026,6.9027,6.9001,6.9086,6.9053,6.9062,6.9104,6.9187,6.9193,6.92,6.9255,6.9269,6.9281,0,0,0,0,0,0,6.8956,6.8962,6.8946,6.9007,6.9022,6.9029,6.9063,6.9043,6.9067,6.9061,6.9043,6.9046,6.9104,6.9108,6.9072,6.9176,6.9131,6.914,6.9171,6.9184,6.9195,6.9193,6.9023,0,0,0,0,0,6.8975,6.9007,6.901,6.9064,6.9073,6.9067,6.9084,6.9072,6.9087,6.9093,6.9097,6.9113,6.9143,6.9163,6.9191,6.926,6.9264,6.9294,6.9304,6.9313,6.9321,6.9362,6.9376,6.9224,6.9223,6.9223,0,0,6.9014,6.9021,6.9042,6.9075,6.9085,6.912,6.9072,6.911,6.9137,6.9099,6.915,6.9154,6.917,6.9233,6.926,6.9238,6.9364,6.9321,6.9328,6.9332,6.937,6.9384,6.9397,6.9228,6.9227,6.9226,0,0,6.9103,6.911,6.9158,6.917,6.9186,6.9182,6.9194,6.9204,6.9205,6.9257,6.923,6.9261,6.9313,6.9327,6.934,6.9438,6.9417,6.9447,6.9504,6.9544,6.9556,6.9567,6.9605,6.9618,6.9455,6.9455,6.9455,0,6.915,6.9201,6.9185,6.9226,6.9243,6.9211,6.926,6.9272,6.9296,6.9309,6.9284,6.9351,6.9359,6.9426,6.945,6.9461,6.9476,6.9447,6.9556,6.9566,6.9576,6.9612,6.9626,6.9459,6.9459,6.9458,6.9458,0,6.9259,6.9295,6.9332,6.9358,6.9378,6.9423,6.9415,6.9438,6.9425,6.9424,6.9478,6.9488,6.9518,6.9533,6.952,6.9599,6.9586,6.9558,6.9514,6.9595,6.9629,6.9642,6.9465,6.9463,6.9462,6.9461,0,0,6.9382,6.94,6.9414,6.9427,6.9444,6.9472,6.9516,6.9546,6.9568,6.9586,6.9625,6.967,6.9646,6.9662,6.9651,6.9685,6.9767,6.9654,6.9654,6.9677,6.9858,6.9881,6.9897,6.9752,6.9754,6.9756,6.9858,0,6.9474,6.9551,6.9539,6.9614,6.965,6.962,6.9659,6.9675,6.9675,6.9706,6.9706,6.9741,6.9704,6.9714,6.9747,6.975,6.9803,6.9742,6.979,6.9792,6.9789,6.9914,6.9938,7.0033,6.9871,6.9873,6.9875,0,6.9592,6.9616,6.9695,6.9709,6.9723,6.9759,6.9787,6.9816,6.9834,6.9832,6.9851,6.9834,6.988,6.9834,6.9899,6.9858,6.9877,6.9882,6.9885,6.9891,6.984,6.9927,7.0063,7.0079,6.9895,6.9893,6.9892,0,6.9678,6.973,6.9785,6.9796,6.9813,6.9839,6.9848,6.9862,6.9883,6.9908,6.9921,6.9951,6.9968,6.9992,6.9985,6.9951,7.0053,7.0005,7.0055,7.0056,7.0079,7.0079,7.0224,7.0087,7.0087,7.0086,7.0086,0,6.9784,6.9834,6.9825,6.9859,6.9915,6.9901,6.9957,6.9962,6.9976,7.0012,6.9987,7.0021,7.0008,7.0042,7.0036,7.0093,7.01,7.0102,7.01,7.0106,7.0106,7.012,7.0114,7.009,7.0089,7.0089,7.0088,0,6.9891,6.9886,6.9944,6.9956,6.996,7.0002,7.0012,7.0045,7.0044,7.009,7.01,7.0099,7.0138,7.0132,7.0175,7.0171,7.0244,7.0232,7.0238,7.0237,7.0288,7.0285,7.045,7.0473,7.0318,7.0319,7.032,0,6.996,6.9998,7.0014,7.0037,7.0048,7.0083,7.0104,7.0092,7.0115,7.014,7.017,7.0207,7.0236,7.03,7.0304,7.0337,7.0329,7.0384,7.0333,7.0339,7.0334,7.0333,7.0338,7.0395,7.0397,7.0398,7.0399,0,7.0084,7.0081,7.0112,7.0143,7.0169,7.0193,7.0214,7.0234,7.0224,7.0251,7.0291,7.0314,7.0359,7.0397,7.0429,7.0438,7.0419,7.0415,7.0429,7.0437,7.044,7.0443,7.0269,7.0412,7.0411,7.041,7.0409,7.0409,7.0177,7.0211,7.0229,7.0265,7.028,7.0301,7.0334,7.0338,7.0371,7.0407,7.0397,7.0443,7.0462,7.0503,7.0516,7.0553,7.0533,7.0552,7.0558,7.0564,7.0572,7.0432,7.0559,7.0558,7.0558,7.0557,7.0557,0,7.0303,7.0313,7.0347,7.0379,7.0408,7.0386,7.0409,7.0435,7.0476,7.0495,7.0525,7.0572,7.061,7.0617,7.0653,7.0681,7.0674,7.0692,7.0691,7.0694,7.0586,7.0572,7.0698,7.0698,7.0698,7.0698,7.0698,7.0698,7.0373,7.043,7.0429,7.0495,7.0505,7.055,7.0566,7.0586,7.0602,7.0656,7.0687,7.0691,7.0707,7.0744,7.0778,7.078,7.0796,7.0818,7.0816,7.0715,7.0701,7.0688,7.0675,7.0821,7.0821,7.0922,7.0923,7.0924]}]]